Regional Weather Roundup
Issued by NWS Sioux Falls, SD

Home | Current Version | Previous Version | Text Only | Print | Product List | Glossary Off
Versions: 1 2 3 4 5 6 7 8 9 10 11 12 13 14 15 16 17 18 19 20 21 22 23 24 25 26 27 28 29 30 31 32 33 34 35 36 37 38 39 40 41 42 43 44 45 46 47 48 49 50

000
ASUS43 KFSD 201202
RWRFSD

WEATHER ROUNDUP FOR SE SOUTH DAKOTA/SW MINNESOTA/NW IOWA
NATIONAL WEATHER SERVICE SIOUX FALLS SD
700 AM CDT THU JUL 20 2017

NOTE: "FAIR" INDICATES FEW OR NO CLOUDS BELOW 12,000 FEET WITH NO
SIGNIFICANT WEATHER AND OR OBSTRUCTIONS TO VISIBILITY.


SDZ038>040-050-052>070-201300-
SOUTHEAST SOUTH DAKOTA

CITY           SKY/WX    TMP DP  RH WIND       PRES   REMARKS
BROOKINGS      CLOUDY    69  67  93 NE6       30.01F
CHAMBERLAIN    CLOUDY    73  72  97 E5        30.02S
6HR MIN TEMP:  73; 6HR MAX TEMP:  78;

HURON          CLOUDY    70  69  97 CALM      30.00R FOG
6HR MIN TEMP:  69; 6HR MAX TEMP:  74;

MADISON        FAIR      68  68 100 NE6       30.02R FOG
MITCHELL       CLOUDY    72  71  97 CALM      30.00S
6HR MIN TEMP:  72; 6HR MAX TEMP:  76;

SIOUX FALLS    CLOUDY    71  69  93 N3        30.00R
6HR MIN TEMP:  70; 6HR MAX TEMP:  73;

WINNER         FAIR      74  69  85 E6        30.01S
YANKTON        CLOUDY    72  70  93 N3        29.99R
$$

MNZ071-072-080-081-089-090-097-098-201300-
SOUTHWEST MINNESOTA

CITY           SKY/WX    TMP DP  RH WIND       PRES   REMARKS
FAIRMONT       PTCLDY    68  67  96 N8        30.00R FOG
JACKSON        CLOUDY    68  66  94 CALM      30.00S FOG
MARSHALL       CLOUDY    68  68 100 SW5       30.02R FOG
6HR MIN TEMP:  68; 6HR MAX TEMP:  70; 6HR PCP:  0.01;

MONTEVIDEO     CLOUDY    64  64 100 N3        29.99S FOG
PIPESTONE      MOCLDY    70  66  88 NE6       30.00S
REDWOOD FALLS  CLOUDY    67  65  93 N7        29.98R FOG
TRACY          CLOUDY    68  69 100 NW5       30.02R FOG
WINDOM         PTCLDY    68  66  94 W5        30.01R FOG
WORTHINGTON    MOCLDY    68  67  96 NE7       30.01S
$$

IAZ001>003-012>014-020>022-031-032-NEZ013-014-SDZ071-201300-
NORTHWEST IOWA

CITY           SKY/WX    TMP DP  RH WIND       PRES   REMARKS
CHEROKEE       PTCLDY    73  71  94 N9        29.97R
DENISON        MOCLDY    75  72  88 CALM      29.98R
ESTHERVILLE    CLOUDY    68  68 100 N7        29.98R
ORANGE CITY    CLOUDY    72  66  83 NE5       29.99R
SHELDON        CLOUDY    68  66  94 CALM      29.98R
SIOUX CITY     CLOUDY    78  75  90 NW5       29.95R
6HR MIN TEMP:  77; 6HR MAX TEMP:  90;

SPENCER        PTCLDY    71  68  90 CALM      29.99R
6HR MIN TEMP:  69; 6HR MAX TEMP:  79;

STORM LAKE     PTCLDY    75  73  94 N6        29.97R FOG
$$

ABBREVIATIONS USED IN REMARKS
   TC - TEMPERATURE IN CELSIUS
  WCI - WIND CHILL INDEX
   HX - HEAT INDEX
  VSB - VISIBILITY




USA.gov is the U.S. government's official web portal to all federal, state and local government web resources and services.